AMOS-3

Last updated on Thu Oct 30 2025 00:02:48 GMT+0000 (Coordinated Universal Time)

1 32794U 08022A 25302.25615333 -.00000025 00000+0 00000+0 0 9993 2 32794 0.0244 126.8683 0003851 83.3510 275.7344 1.00273841 80026
UTC large
Height (km)
Speed (km/s)
/
Latitude / Longitude
Inclination (degrees)
Orbital Period (minutes)
Azimuth
Elevation
Range (km)
Doppler Factor

Next 0 passes for location: London (51.5072 / 0.1276)

Sorry there are no passes over London.